FW7644 Weather Reports


time (UTC)temp
C
wind
direction
speed
KPH
gust
KPH
rain 1hr
cm
rain 24hr
cm
rain mn
cm
humidity
%
barometer
mb
20260508153520 17 0.0 0.0 0.03 0.03 0.03 99 1013.8
20260508153019 17 0.0 0.0 0.03 0.03 0.03 99 1013.7
20260508152517 17 0.0 0.0 0.00 0.00 0.00 99 1013.6
20260508152015 17 0.0 0.0 0.00 0.00 0.00 99 1013.6
20260508151513 17 0.0 0.0 0.00 0.00 0.00 99 1013.7
20260508151012 17 0.0 0.0 0.00 0.00 0.00 99 1013.6
20260508150510 17 0.0 0.0 0.00 0.00 0.00 99 1013.7
20260508150008 17 0.0 0.0 0.00 0.00 0.00 99 1013.7
20260508145506 17 0.0 0.0 0.00 0.00 0.00 99 1013.7
20260508145005 17 0.0 0.0 0.00 0.00 0.00 99 1014.0
20260508144503 18 0.0 0.0 0.00 0.00 0.00 99 1014.1
20260508144000 18 0.0 0.0 0.00 0.00 0.00 99 1014.4
20260508143459 18 0.0 0.0 0.00 0.00 0.00 99 1014.6
20260508142957 19 0.0 0.0 0.00 0.00 0.00 94 1014.6
20260508142455 19 0.0 0.0 0.00 0.00 0.00 92 1014.6
20260508141954 19 0.0 0.0 0.00 0.00 0.00 92 1014.8
20260508141452 19 0.0 0.0 0.00 0.00 0.00 90 1015.0
20260508140950 20 0.0 0.0 0.00 0.00 0.00 90 1015.0
20260508140448 20 0.0 0.0 0.00 0.00 0.00 89 1015.1
20260508135946 20 0.0 0.0 0.00 0.00 0.00 88 1014.9
20260508135444 20 0.0 0.0 0.00 0.00 0.00 86 1015.0
20260508134942 20 0.0 0.0 0.00 0.00 0.00 85 1014.9
20260508134441 20 0.0 0.0 0.00 0.00 0.00 85 1015.0
20260508133938 20 0.0 0.0 0.00 0.00 0.00 86 1015.1
20260508133436 20 0.0 0.0 0.00 0.00 0.00 85 1015.0
20260508132934 20 0.0 0.0 0.00 0.00 0.00 87 1014.9
20260508132432 20 0.0 0.0 0.00 0.00 0.00 89 1014.9
20260508131929 20 0.0 0.0 0.00 0.00 0.00 90 1015.0
20260508131427 20 0.0 0.0 0.00 0.00 0.00 89 1015.0
20260508130925 20 0.0 0.0 0.00 0.00 0.00 88 1015.1
20260508130423 20 0.0 0.0 0.00 0.00 0.00 87 1015.1
20260508125920 20 0.0 0.0 0.00 0.00 0.00 87 1015.0
20260508125418 20 0.0 0.0 0.00 0.00 0.00 87 1015.1
20260508124916 20 0.0 0.0 0.00 0.00 0.00 85 1015.1
20260508124414 20 0.0 0.0 0.00 0.00 0.00 85 1014.9
20260508123911 20 0.0 0.0 0.00 0.00 0.00 85 1014.9
20260508123410 20 0.0 0.0 0.00 0.00 0.00 85 1014.8
20260508122907 20 0.0 0.0 0.00 0.00 0.00 84 1014.8
20260508122405 20 0.0 0.0 0.00 0.00 0.00 83 1014.7
20260508121903 20 0.0 0.0 0.00 0.00 0.00 83 1014.7
20260508121401 20 0.0 0.0 0.00 0.00 0.00 82 1014.4
20260508120858 20 0.0 0.0 0.00 0.00 0.00 83 1014.4
20260508120356 20 0.0 0.0 0.00 0.00 0.00 83 1014.4
20260508115854 20 0.0 0.0 0.00 0.00 0.00 82 1014.4
20260508115352 20 0.0 0.0 0.00 0.00 0.00 80 1014.3
20260508114850 20 0.0 0.0 0.00 0.00 0.00 81 1014.5
20260508114348 20 0.0 0.0 0.00 0.00 0.00 82 1014.5
20260508113845 20 0.0 0.0 0.00 0.00 0.00 82 1014.5
20260508113343 20 0.0 0.0 0.00 0.00 0.00 82 1014.5
20260508112841 20 0.0 0.0 0.00 0.00 0.00 82 1014.4
20260508112340 20 0.0 0.0 0.00 0.00 0.00 83 1014.4
20260508111838 20 0.0 0.0 0.00 0.00 0.00 82 1014.4
20260508111337 20 0.0 0.0 0.00 0.00 0.00 83 1014.2
20260508110835 20 0.0 0.0 0.00 0.00 0.00 83 1014.0
20260508110334 20 0.0 0.0 0.00 0.00 0.00 83 1013.8
20260508105832 19 0.0 0.0 0.00 0.00 0.00 83 1013.8
20260508105330 19 0.0 0.0 0.00 0.00 0.00 83 1013.7
20260508104828 19 0.0 0.0 0.00 0.00 0.00 83 1013.7
20260508104326 19 0.0 0.0 0.00 0.00 0.00 83 1013.7
20260508103824 19 0.0 0.0 0.00 0.00 0.00 83 1013.6
20260508103323 19 0.0 0.0 0.00 0.00 0.00 84 1013.6
20260508102821 19 0.0 0.0 0.00 0.00 0.00 83 1013.6
20260508102319 19 0.0 0.0 0.00 0.00 0.00 82 1013.5
20260508101817 19 0.0 0.0 0.00 0.00 0.00 82 1013.3
20260508101316 19 0.0 0.0 0.00 0.00 0.00 81 1013.2
20260508100814 19 0.0 0.0 0.00 0.00 0.00 82 1013.2
20260508100312 19 0.0 0.0 0.00 0.00 0.00 84 1013.2
20260508095810 18 0.0 0.0 0.00 0.00 0.00 85 1013.2
20260508095308 19 0.0 0.0 0.00 0.00 0.00 84 1013.1
20260508094807 18 0.0 0.0 0.00 0.00 0.00 85 1012.9
20260508094305 18 0.0 0.0 0.00 0.00 0.00 88 1012.8
20260508093803 18 0.0 0.0 0.00 0.00 0.00 89 1012.6
20260508093302 18 0.0 0.0 0.00 0.00 0.00 88 1012.5
20260508092800 18 0.0 0.0 0.00 0.00 0.00 87 1012.5
20260508092258 18 0.0 0.0 0.00 0.00 0.00 87 1012.3
20260508091756 18 0.0 0.0 0.00 0.00 0.00 87 1012.2
20260508091255 18 0.0 0.0 0.00 0.00 0.00 87 1012.0
20260508090753 18 0.0 0.0 0.00 0.00 0.00 88 1011.9
20260508090251 18 0.0 0.0 0.00 0.00 0.00 88 1012.0
20260508085750 18 0.0 0.0 0.00 0.00 0.00 89 1012.0
20260508085248 18 0.0 0.0 0.00 0.00 0.00 89 1012.0
20260508084746 18 0.0 0.0 0.00 0.00 0.00 89 1012.0
20260508084244 18 0.0 0.0 0.00 0.00 0.00 88 1011.8
20260508083742 18 0.0 0.0 0.00 0.00 0.00 90 1011.5
20260508083240 18 0.0 0.0 0.00 0.00 0.00 90 1011.6
20260508082739 18 0.0 0.0 0.00 0.00 0.00 90 1011.8
20260508082237 18 0.0 0.0 0.00 0.00 0.00 90 1012.0
20260508081736 18 0.0 0.0 0.00 0.00 0.00 90 1012.0
20260508081234 18 0.0 0.0 0.00 0.00 0.00 91 1012.0
20260508080732 18 0.0 0.0 0.00 0.00 0.00 93 1012.0
20260508080230 18 0.0 0.0 0.00 0.00 0.00 95 1012.0
20260508075729 18 0.0 0.0 0.00 0.00 0.00 94 1011.9
20260508075227 18 0.0 0.0 0.00 0.00 0.00 94 1011.9
20260508074726 18 0.0 0.0 0.00 0.00 0.00 95 1011.9
20260508074224 18 0.0 0.0 0.00 0.00 0.00 96 1011.8
20260508073723 18 0.0 0.0 0.00 0.00 0.00 95 1011.7
20260508073221 18 0.0 0.0 0.00 0.00 0.00 94 1011.7
20260508072720 18 0.0 0.0 0.00 0.00 0.00 94 1011.6
20260508072218 18 0.0 0.0 0.00 0.00 0.00 95 1011.7
20260508071717 18 0.0 0.0 0.00 0.00 0.00 95 1011.9
20260508071215 18 0.0 0.0 0.00 0.00 0.00 94 1012.2
20260508070714 18 0.0 0.0 0.00 0.00 0.00 94 1012.3
20260508070212 18 0.0 0.0 0.00 0.00 0.00 96 1012.3
20260508065710 18 0.0 0.0 0.00 0.00 0.00 96 1012.4
20260508065208 18 0.0 0.0 0.00 0.00 0.00 96 1012.5
20260508064707 18 0.0 0.0 0.00 0.00 0.00 95 1012.7
20260508064206 18 0.0 0.0 0.00 0.00 0.00 95 1012.9
20260508063704 18 0.0 0.0 0.00 0.00 0.00 96 1013.0
20260508063202 18 0.0 0.0 0.00 0.00 0.00 96 1013.2
20260508062700 18 0.0 0.0 0.00 0.00 0.00 96 1013.3
20260508062158 18 0.0 0.0 0.00 0.00 0.00 97 1013.3
20260508061657 17 0.0 0.0 0.00 0.00 0.00 98 1013.2
20260508061155 17 0.0 0.0 0.00 0.00 0.00 99 1013.3
20260508060653 17 0.0 0.0 0.00 0.00 0.00 99 1013.4
20260508060152 17 0.0 0.0 0.00 0.00 0.00 99 1013.4
20260508055650 17 0.0 0.0 0.00 0.00 0.00 99 1013.4
20260508055148 17 0.0 0.0 0.00 0.00 0.00 99 1013.4
20260508054647 17 0.0 0.0 0.00 0.00 0.00 99 1013.5
20260508054145 16 0.0 0.0 0.00 0.00 0.00 99 1013.4
20260508053643 16 0.0 0.0 0.00 0.00 0.00 99 1013.4
20260508053141 16 0.0 0.0 0.00 0.00 0.00 99 1013.5
20260508052639 16 0.0 0.0 0.00 0.00 0.00 99 1013.5
20260508052138 16 0.0 0.0 0.00 0.00 0.00 99 1013.5
20260508051636 16 0.0 0.0 0.00 0.00 0.00 99 1013.4
20260508051134 16 0.0 0.0 0.00 0.00 0.00 99 1013.3
20260508050632 16 0.0 0.0 0.00 0.00 0.00 99 1013.4
20260508050131 16 0.0 0.0 0.00 0.00 0.00 99 1013.3
20260508045630 16 0.0 0.0 0.00 0.00 0.00 99 1013.4
20260508045128 16 0.0 0.0 0.00 0.00 0.00 99 1013.3
20260508044626 15 0.0 0.0 0.00 0.00 0.00 99 1013.2
20260508044125 15 0.0 0.0 0.00 0.00 0.00 99 1013.2
20260508043623 15 0.0 0.0 0.00 0.00 0.00 99 1013.2
20260508043121 15 0.0 0.0 0.00 0.00 0.00 99 1013.2
20260508042619 15 0.0 0.0 0.00 0.00 0.00 99 1013.2
20260508042117 16 0.0 0.0 0.00 0.00 0.00 99 1013.3
20260508041615 16 0.0 0.0 0.00 0.00 0.00 99 1013.3
20260508041114 16 0.0 0.0 0.00 0.00 0.00 99 1013.3
20260508040612 16 0.0 0.0 0.00 0.00 0.00 99 1013.4
20260508040110 16 0.0 0.0 0.00 0.00 0.00 99 1013.4
20260508035608 16 0.0 0.0 0.00 0.00 0.00 99 1013.5
20260508035107 16 0.0 0.0 0.00 0.00 0.00 99 1013.3
20260508034605 16 0.0 0.0 0.00 0.00 0.00 99 1013.4
20260508034103 16 0.0 0.0 0.00 0.00 0.00 99 1013.3
20260508033601 16 0.0 0.0 0.00 0.00 0.00 99 1013.4
20260508033059 16 0.0 0.0 0.00 0.00 0.00 99 1013.5
20260508032558 17 0.0 0.0 0.00 0.00 0.00 99 1013.6
20260508032056 17 0.0 0.0 0.00 0.00 0.00 99 1013.7
20260508031554 16 0.0 0.0 0.00 0.00 0.00 99 1013.7
20260508031052 16 0.0 0.0 0.00 0.00 0.00 99 1013.6
20260508030551 16 0.0 0.0 0.00 0.00 0.00 99 1013.7
20260508030049 16 0.0 0.0 0.00 0.00 0.00 99 1013.6
20260508025547 16 0.0 0.0 0.00 0.00 0.00 99 1013.7
20260508025045 16 0.0 0.0 0.00 0.00 0.00 99 1013.7
20260508024543 16 0.0 0.0 0.00 0.00 0.00 99 1013.7
20260508024042 16 0.0 0.0 0.00 0.00 0.00 99 1013.7
20260508023540 16 0.0 0.0 0.00 0.00 0.00 99 1013.7
20260508023038 16 0.0 0.0 0.00 0.00 0.00 99 1013.7
20260508022536 16 0.0 0.0 0.00 0.00 0.00 99 1013.8
20260508022034 16 0.0 0.0 0.00 0.00 0.00 99 1013.9
20260508021533 16 0.0 0.0 0.00 0.00 0.00 99 1013.9
20260508021031 16 0.0 0.0 0.00 0.00 0.00 99 1013.8
20260508020529 16 0.0 0.0 0.00 0.00 0.00 99 1013.9
20260508020027 16 0.0 0.0 0.00 0.00 0.00 99 1014.0
20260508015525 16 0.0 0.0 0.00 0.00 0.00 99 1014.0
20260508015023 16 0.0 0.0 0.00 0.00 0.00 99 1014.0
20260508014522 16 0.0 0.0 0.00 0.00 0.00 99 1014.1
20260508014020 16 0.0 0.0 0.00 0.00 0.00 99 1014.1
20260508013518 16 0.0 0.0 0.00 0.00 0.00 99 1014.2
20260508013016 16 0.0 0.0 0.00 0.00 0.00 99 1014.2
20260508012514 16 0.0 0.0 0.00 0.00 0.00 99 1014.2
20260508012012 16 0.0 0.0 0.00 0.00 0.00 99 1014.1
20260508011511 16 0.0 0.0 0.00 0.00 0.00 99 1014.1
20260508011009 16 0.0 0.0 0.00 0.00 0.00 99 1014.1
20260508010507 17 0.0 0.0 0.00 0.00 0.00 99 1014.1
20260508010004 17 0.0 0.0 0.00 0.00 0.00 99 1014.2
20260508005503 17 0.0 0.0 0.00 0.00 0.00 99 1014.3
20260508005001 17 0.0 0.0 0.00 0.00 0.00 99 1014.4
20260508004459 17 0.0 0.0 0.00 0.00 0.00 99 1014.3
20260508003958 17 0.0 0.0 0.00 0.00 0.00 99 1014.3
20260508003455 17 0.0 0.0 0.00 0.00 0.00 99 1014.3
20260508002954 17 0.0 0.0 0.00 0.00 0.00 99 1014.4
20260508002452 17 0.0 0.0 0.00 0.00 0.00 99 1014.5
20260508001950 17 0.0 0.0 0.00 0.00 0.00 99 1014.5
20260508001448 17 0.0 0.0 0.00 0.00 0.00 99 1014.5
20260508000945 17 0.0 0.0 0.00 0.00 0.00 99 1014.3
20260508000443 17 0.0 0.0 0.00 0.00 0.00 98 1014.1
20260507235941 17 0.0 0.0 0.00 0.00 0.00 98 1013.9
20260507235439 17 0.0 0.0 0.00 0.00 0.00 96 1014.0
20260507234938 17 0.0 0.0 0.00 0.00 0.00 96 1014.0
20260507234436 18 0.0 0.0 0.00 0.00 0.00 95 1014.0
20260507233933 18 0.0 0.0 0.00 0.00 0.00 94 1014.1
20260507233431 18 0.0 0.0 0.00 0.00 0.00 94 1014.1
20260507232929 18 0.0 0.0 0.00 0.00 0.00 94 1013.9
20260507232428 18 0.0 0.0 0.00 0.00 0.00 95 1013.9
20260507231926 18 0.0 0.0 0.00 0.00 0.00 96 1013.9
20260507231424 18 0.0 0.0 0.00 0.00 0.00 96 1013.9
20260507230922 18 0.0 0.0 0.00 0.00 0.00 95 1014.0
20260507230419 18 0.0 0.0 0.00 0.00 0.00 93 1013.9
20260507225917 18 0.0 0.0 0.00 0.00 0.00 92 1013.9
20260507225415 19 0.0 0.0 0.00 0.00 0.00 90 1013.8
20260507224913 19 0.0 0.0 0.00 0.00 0.00 88 1013.7
20260507224412 19 0.0 0.0 0.00 0.00 0.00 87 1013.8
20260507223910 19 0.0 0.0 0.00 0.00 0.00 87 1013.8
20260507223408 19 0.0 0.0 0.00 0.00 0.00 86 1013.8
20260507222906 19 0.0 0.0 0.00 0.00 0.00 85 1013.8
20260507222404 20 0.0 0.0 0.00 0.00 0.00 85 1013.7
20260507221902 20 0.0 0.0 0.00 0.00 0.00 84 1013.6
20260507221359 20 0.0 0.0 0.00 0.00 0.00 83 1013.6
20260507220859 20 0.0 0.0 0.00 0.00 0.00 82 1013.5
20260507220356 20 0.0 0.0 0.00 0.00 0.00 81 1013.5
20260507215852 20 0.0 0.0 0.00 0.00 0.00 81 1013.5
20260507215350 20 0.0 0.0 0.00 0.00 0.00 81 1013.4
20260507214847 20 0.0 0.0 0.00 0.00 0.00 80 1013.3
20260507214345 20 0.0 0.0 0.00 0.00 0.00 78 1013.3
20260507213844 20 0.0 0.0 0.00 0.00 0.00 76 1013.4
20260507213342 21 0.0 0.0 0.00 0.00 0.00 74 1013.2
20260507212840 21 0.0 0.0 0.00 0.00 0.00 72 1013.2
20260507212338 21 0.0 0.0 0.00 0.00 0.00 72 1013.2
20260507211836 21 0.0 0.0 0.00 0.00 0.00 71 1013.2
20260507211334 21 0.0 0.0 0.00 0.00 0.00 71 1013.2
20260507210832 21 0.0 0.0 0.00 0.00 0.00 70 1013.3
20260507210330 22 0.0 0.0 0.00 0.00 0.00 69 1013.2
20260507205828 22 0.0 0.0 0.00 0.00 0.00 68 1013.1
20260507205325 22 0.0 0.0 0.00 0.00 0.00 68 1013.1
20260507204823 22 0.0 0.0 0.00 0.00 0.00 67 1013.2
20260507204321 22 0.0 0.0 0.00 0.00 0.00 66 1013.1
20260507203818 22 0.0 0.0 0.00 0.00 0.00 66 1013.1
20260507203317 22 0.0 0.0 0.00 0.00 0.00 65 1013.1
20260507202815 23 0.0 0.0 0.00 0.00 0.00 64 1013.0
20260507202313 23 0.0 0.0 0.00 0.00 0.00 63 1013.0
20260507201812 23 0.0 0.0 0.00 0.00 0.00 61 1013.0
20260507201310 23 0.0 0.0 0.00 0.00 0.00 60 1013.0
20260507200808 24 0.0 0.0 0.00 0.00 0.00 57 1013.0
20260507200307 24 0.0 0.0 0.00 0.00 0.00 57 1013.0
20260507195805 24 0.0 0.0 0.00 0.00 0.00 57 1013.0
20260507195305 25 0.0 0.0 0.00 0.00 0.00 55 1013.0
20260507194801 25 0.0 0.0 0.00 0.00 0.00 54 1012.9
20260507194300 25 0.0 0.0 0.00 0.00 0.00 56 1013.0
20260507193758 25 0.0 0.0 0.00 0.00 0.00 56 1013.0
20260507193256 25 0.0 0.0 0.00 0.00 0.00 54 1013.0
20260507192754 25 0.0 0.0 0.00 0.00 0.00 53 1013.1
20260507192253 25 0.0 0.0 0.00 0.00 0.00 53 1013.0
20260507191750 25 0.0 0.0 0.00 0.00 0.00 53 1013.0
20260507191248 25 0.0 0.0 0.00 0.00 0.00 52 1013.1
20260507190746 25 0.0 0.0 0.00 0.00 0.00 51 1013.1
20260507190245 27 0.0 0.0 0.00 0.00 0.00 47 1013.2
20260507185743 27 0.0 0.0 0.00 0.00 0.00 47 1013.2
20260507185242 27 0.0 0.0 0.00 0.00 0.00 45 1013.4
20260507184740 27 0.0 0.0 0.00 0.00 0.00 46 1013.4
20260507184238 27 0.0 0.0 0.00 0.00 0.00 46 1013.4
20260507183736 26 0.0 0.0 0.00 0.00 0.00 47 1013.3
20260507183234 27 0.0 0.0 0.00 0.00 0.00 46 1013.3
20260507182732 27 0.0 0.0 0.00 0.00 0.00 46 1013.4
20260507182231 27 0.0 0.0 0.00 0.00 0.00 45 1013.3
20260507181729 27 0.0 0.0 0.00 0.00 0.00 45 1013.4
20260507181227 27 0.0 0.0 0.00 0.00 0.00 45 1013.5
20260507180726 27 0.0 0.0 0.00 0.00 0.00 45 1013.5
20260507180224 28 0.0 0.0 0.00 0.00 0.00 43 1013.5
20260507175722 28 0.0 0.0 0.00 0.00 0.00 43 1013.6
20260507175220 27 0.0 0.0 0.00 0.00 0.00 44 1013.6
20260507174718 28 0.0 0.0 0.00 0.00 0.00 42 1013.6
20260507174217 27 0.0 0.0 0.00 0.00 0.00 43 1013.7
20260507173715 27 0.0 0.0 0.00 0.00 0.00 43 1013.8
20260507173213 27 0.0 0.0 0.00 0.00 0.00 42 1013.8
20260507172711 27 0.0 0.0 0.00 0.00 0.00 43 1013.8
20260507172210 28 0.0 0.0 0.00 0.00 0.00 41 1013.8
20260507171708 28 0.0 0.0 0.00 0.00 0.00 41 1013.8
20260507171206 28 0.0 0.0 0.00 0.00 0.00 41 1013.8
20260507170704 27 0.0 0.0 0.00 0.00 0.00 43 1013.9
20260507170203 27 0.0 0.0 0.00 0.00 0.00 41 1014.0
20260507165701 28 0.0 0.0 0.00 0.00 0.00 41 1014.0
20260507165159 27 0.0 0.0 0.00 0.00 0.00 42 1014.1
20260507164657 27 0.0 0.0 0.00 0.00 0.00 41 1014.2
20260507164155 28 0.0 0.0 0.00 0.00 0.00 40 1014.3
20260507163652 28 0.0 0.0 0.00 0.00 0.00 39 1014.4
20260507163151 27 0.0 0.0 0.00 0.00 0.00 40 1014.5
20260507162649 27 0.0 0.0 0.00 0.00 0.00 42 1014.5
20260507162147 27 0.0 0.0 0.00 0.00 0.00 43 1014.6
20260507161645 28 0.0 0.0 0.00 0.00 0.00 42 1014.7
20260507161143 28 0.0 0.0 0.00 0.00 0.00 43 1014.8
20260507160641 28 0.0 0.0 0.00 0.00 0.00 42 1014.8
20260507160140 27 0.0 0.0 0.00 0.00 0.00 41 1015.0
20260507155636 28 0.0 0.0 0.00 0.00 0.00 42 1015.2
20260507155134 27 0.0 0.0 0.00 0.00 0.00 44 1015.3
20260507154632 27 0.0 0.0 0.00 0.00 0.00 45 1015.4
20260507154127 27 0.0 0.0 0.00 0.00 0.00 43 1015.5